Content
SEND FEEDBACK

Daily
Averages
Monthly
Summary
United States of America

NEW YORK - CENTRAL PARK, NEW YORK


Home > North America > United States > New York
Elevation: 4 meters     Latitude: 40 47N     Longitude: 073 58W

WEATHER
 
SELECT A DAY
Number of Records: 148,328;   Date Range: 11/1/95 - 9/18/14
 
SHARE

PRINT THIS DATA

[ ← Previous Day ]
WEATHER ALMANAC - 22 FEBRUARY, 2013
[ Next Day → ]
[ °F ]   °C
Weather ElementAverageHighLow
Temperature0.4 °C2.8 °C (1:51 pm)-3.9 °C (1:51 am)
Dewpoint-6.1 °C-1.1 °C (11:51 pm)-10 °C (1:51 am)
Humidity62.4 %76 % (11:51 pm)50 % (1:51 pm)
Barometer1027.1 hPa1029.1 hPa (7:51 am)1025.1 hPa (11:51 pm)
Wind Speed11.4 km/h18.5 km/h (7:51 am)
Wind Gust31.5 km/h (4:51 am)
Weather ElementAverage
Visibility16.1 km
Wind DirectionENE (73.5 °)

Weather ElementTotal
Precipitation---
Heating Degree Days18.9 (Base 18.3)
Averaged from 23 records on 22 February, 2013
WEATHER CONDITIONS BREAKOUT
WIND DIRECTION BREAKOUT
WEATHER BY HOUR - 22 FEBRUARY, 2013
[ °F ]   °C
Local TimeTemperatureDewpointHumidityBarometerVisibilityWind DirectionWind SpeedGust SpeedPrecipitationEventsConditions
1:51 AM-3.9 °C-10 °C63 %1025.4 hPa16.1 kmNNE (20°)14.8 km/hClear
2:51 AM-3.3 °C-9.4 °C63 %1026.4 hPa16.1 kmNorth (360°)7.4 km/hClear
3:51 AM-3.3 °C-8.9 °C66 %1026.4 hPa16.1 kmNorth (360°)16.7 km/hClear
4:51 AM-2.8 °C-8.3 °C66 %1027.1 hPa16.1 kmVariable9.3 km/h31.5 km/hClear
5:51 AM-2.8 °C-8.3 °C66 %1028.1 hPa16.1 kmNE (40°)14.8 km/hClear
6:51 AM-2.8 °C-7.8 °C69 %1028.8 hPa16.1 kmNNE (30°)9.3 km/hClear
7:51 AM-2.2 °C-8.3 °C63 %1029.1 hPa16.1 kmNE (50°)18.5 km/h27.8 km/hClear
8:51 AM-1.7 °C-8.3 °C61 %1029.1 hPa16.1 kmNE (50°)16.7 km/hClear
9:51 AM-0.6 °C-7.8 °C59 %1029.1 hPa16.1 kmVariable5.6 km/hClear
10:51 AM0.6 °C-7.8 °C54 %1029.1 hPa16.1 kmENE (70°)13 km/hClear
11:51 AM1.1 °C-7.2 °C54 %1028.8 hPa16.1 kmENE (60°)18.5 km/hClear
12:51 PM2.2 °C-6.7 °C52 %1027.8 hPa16.1 kmENE (70°)13 km/hClear
1:51 PM2.8 °C-6.7 °C50 %1026.8 hPa16.1 kmESE (120°)11.1 km/hClear
2:51 PM2.8 °C-6.7 °C50 %1026.4 hPa16.1 kmVariable7.4 km/hClear
3:51 PM2.8 °C-5.6 °C54 %1026.8 hPa16.1 kmVariable7.4 km/hClear
4:51 PM2.2 °C-5 °C59 %1026.8 hPa16.1 kmSouth (170°)14.8 km/hOvercast
5:51 PM2.2 °C-3.9 °C64 %1027.1 hPa16.1 kmVariable5.6 km/hOvercast
6:51 PM2.2 °C-3.3 °C67 %1026.8 hPa16.1 kmVariable7.4 km/hOvercast
7:51 PM2.8 °C-2.8 °C67 %1026.8 hPa16.1 kmSE (140°)9.3 km/hOvercast
8:51 PM2.8 °C-2.2 °C70 %1026.4 hPa16.1 kmVariable11.1 km/hOvercast
9:51 PM2.8 °C-2.2 °C70 %1026.1 hPa16.1 kmSSE (150°)13 km/hOvercast
10:51 PM2.8 °C-1.7 °C73 %1025.7 hPa16.1 kmVariable5.6 km/hOvercast
11:51 PM2.8 °C-1.1 °C76 %1025.1 hPa16.1 kmVariable11.1 km/hOvercast
Hourly data recorded from KNYC, located 0 kilometers away from New York - Central Park, New York







STORIES FROM OUR PARTNERS